QPF
0.00 0.00 0.00 0.00 0.00 0.00 0.01 0.01 0.03 0.02 0.02 0.03 0.06 0.09 0.10 0.11 0.09 0.08 0.07 0.04 0.03 0.02 0.01 0.01 0.01 0.01 0.02 0.02 0.03 0.03 0.04 0.04 0.03 0.02 0.01 0.01 0.01 0.00 0.00 0.00 0.00 0.00 0.00 0.00
0.00 0.00 0.00 0.00 0.00 0.00 0.00 0.01 0.02 0.03 0.04 0.04 0.06 0.09 0.10 0.10 0.08 0.06 0.04 0.03 0.02 0.01 0.01 0.00 0.00 0.01 0.01 0.01 0.02 0.03 0.03 0.03 0.03 0.03 0.01 0.00 0.00 0.00 0.00 0.00 0.00 0.00 0.00 0.00
0.00 0.00 0.00 0.00 0.00 0.00 0.00 0.00 0.01 0.03 0.04 0.05 0.09 0.09 0.07 0.05 0.03 0.02 0.02 0.01 0.01 0.01 0.00 0.00 0.00 0.01 0.02 0.02 0.02 0.03 0.03 0.02 0.02 0.02 0.01 0.00 0.00 0.00 0.00 0.00 0.00 0.00 0.00 0.00
0.00 0.00 0.00 0.00 0.00 0.00 0.00 0.00 0.00 0.01 0.01 0.02 0.03 0.03 0.01 0.01 0.01 0.01 0.01 0.01 0.00 0.00 0.00 0.00 0.01 0.02 0.03 0.04 0.04 0.04 0.04 0.03 0.01 0.01 0.01 0.00 0.00 0.00 0.00 0.00 0.00 0.00 0.00 0.00
0.00 0.00 0.00 0.00 0.00 0.00 0.00 0.00 0.00 0.00 0.00 0.00 0.00 0.01 0.01 0.00 0.00 0.00 0.00 0.00 0.00 0.00 0.00 0.00 0.01 0.01 0.03 0.04 0.04 0.04 0.03 0.02 0.01 0.00 0.00 0.00 0.00 0.00 0.00 0.00 0.00 0.00 0.00 0.00
0.00 0.00 0.00 0.00 0.00 0.00 0.00 0.00 0.00 0.00 0.00 0.00 0.00 0.01 0.02 0.00 0.00 0.00 0.00 0.00 0.00 0.00 0.00 0.01 0.01 0.02 0.03 0.04 0.05 0.06 0.04 0.03 0.02 0.01 0.00 0.00 0.00 0.00 0.00 0.00 0.00 0.00 0.00 0.00
0.00 0.00 0.00 0.00 0.00 0.00 0.00 0.00 0.00 0.00 0.00 0.00 0.00 0.00 0.00 0.00 0.00 0.00 0.00 0.00 0.01 0.01 0.01 0.02 0.02 0.03 0.03 0.04 0.05 0.04 0.03 0.02 0.01 0.01 0.00 0.00 0.00 0.00 0.00 0.00 0.00 0.00 0.00 0.00
0.00 0.00 0.00 0.00 0.00 0.00 0.00 0.00 0.00 0.00 0.00 0.00 0.00 0.00 0.00 0.00 0.00 0.00 0.00 0.00 0.01 0.01 0.02 0.02 0.02 0.02 0.03 0.03 0.03 0.02 0.02 0.01 0.01 0.01 0.00 0.00 0.01 0.01 0.00 0.00 0.00 0.00 0.00 0.00
0.00 0.00 0.00 0.00 0.00 0.00 0.00 0.00 0.00 0.00 0.00 0.00 0.00 0.00 0.00 0.00 0.00 0.00 0.00 0.00 0.01 0.01 0.02 0.02 0.02 0.02 0.02 0.02 0.01 0.01 0.01 0.01 0.01 0.01 0.01 0.01 0.01 0.00 0.00 0.00 0.00 0.00 0.00 0.00
0.00 0.00 0.00 0.00 0.00 0.00 0.00 0.00 0.00 0.00 0.00 0.00 0.00 0.00 0.00 0.00 0.00 0.00 0.00 0.00 0.00 0.01 0.02 0.02 0.02 0.02 0.01 0.01 0.01 0.01 0.01 0.01 0.01 0.01 0.00 0.00 0.00 0.00 0.00 0.00 0.00 0.00 0.00 0.00
0.00 0.00 0.00 0.00 0.00 0.00 0.00 0.00 0.00 0.00 0.00 0.00 0.00 0.00 0.00 0.00 0.00 0.00 0.00 0.00 0.00 0.01 0.01 0.01 0.01 0.01 0.01 0.00 0.01 0.01 0.00 0.00 0.00 0.01 0.00 0.00 0.00 0.00 0.00 0.00 0.00 0.00 0.00 0.00
0.00 0.00 0.00 0.00 0.00 0.00 0.00 0.00 0.00 0.00 0.00 0.00 0.00 0.00 0.00 0.00 0.00 0.00 0.00 0.00 0.00 0.00 0.00 0.01 0.01 0.01 0.00 0.00 0.00 0.01 0.00 0.00 0.00 0.00 0.00 0.00 0.00 0.00 0.00 0.00 0.00 0.00 0.00 0.00
0.00 0.00 0.00 0.00 0.00 0.00 0.00 0.00 0.00 0.00 0.00 0.00 0.00 0.00 0.00 0.00 0.00 0.00 0.00 0.00 0.00 0.00 0.00 0.00 0.00 0.00 0.00 0.00 0.00 0.00 0.00 0.00 0.00 0.00 0.00 0.00 0.00 0.00 0.00 0.00 0.00 0.00 0.00 0.00
0.00 0.00 0.00 0.00 0.00 0.00 0.00 0.00 0.00 0.00 0.00 0.00 0.00 0.00 0.00 0.00 0.00 0.00 0.00 0.00 0.00 0.00 0.00 0.00 0.00 0.00 0.00 0.00 0.00 0.00 0.00 0.00 0.00 0.00 0.00 0.00 0.00 0.00 0.00 0.00 0.00 0.00 0.00 0.00
0.00 0.00 0.00 0.00 0.00 0.00 0.00 0.00 0.00 0.00 0.00 0.00 0.00 0.00 0.00 0.00 0.00 0.00 0.00 0.00 0.00 0.00 0.00 0.00 0.00 0.00 0.00 0.00 0.00 0.00 0.00 0.00 0.00 0.00 0.00 0.00 0.00 0.00 0.00 0.00 0.00 0.00 0.00 0.00
0.00 0.00 0.00 0.00 0.00 0.00 0.00 0.00 0.01 0.01 0.00 0.00 0.00 0.00 0.00 0.00 0.00 0.00 0.00 0.00 0.00 0.00 0.00 0.00 0.00 0.00 0.00 0.00 0.00 0.00 0.00 0.00 0.00 0.00 0.00 0.00 0.00 0.00 0.00 0.00 0.00 0.00 0.00 0.00
0.00 0.01 0.01 0.00 0.00 0.01 0.01 0.01 0.02 0.01 0.01 0.01 0.01 0.00 0.00 0.00 0.00 0.00 0.00 0.00 0.00 0.00 0.00 0.00 0.00 0.00 0.00 0.00 0.00 0.00 0.00 0.00 0.00 0.00 0.00 0.00 0.00 0.00 0.00 0.00 0.00 0.00 0.00 0.00
0.02 0.02 0.01 0.01 0.01 0.01 0.01 0.01 0.01 0.01 0.01 0.01 0.00 0.00 0.00 0.00 0.00 0.00 0.00 0.00 0.00 0.00 0.00 0.00 0.00 0.00 0.00 0.00 0.00 0.00 0.00 0.00 0.00 0.00 0.00 0.00 0.00 0.00 0.00 0.00 0.00 0.00 0.00 0.00
0.03 0.03 0.02 0.01 0.01 0.01 0.01 0.01 0.00 0.01 0.01 0.01 0.01 0.01 0.01 0.00 0.00 0.00 0.00 0.00 0.00 0.00 0.00 0.00 0.00 0.00 0.00 0.00 0.00 0.00 0.00 0.00 0.00 0.00 0.00 0.00 0.00 0.00 0.00 0.00 0.00 0.00 0.00 0.00
0.07 0.07 0.07 0.06 0.05 0.04 0.02 0.01 0.00 0.00 0.00 0.01 0.01 0.01 0.01 0.01 0.00 0.00 0.00 0.00 0.00 0.00 0.00 0.00 0.00 0.00 0.00 0.00 0.00 0.00 0.00 0.00 0.00 0.00 0.00 0.00 0.00 0.00 0.00 0.00 0.00 0.00 0.00 0.00
0.20 0.19 0.17 0.15 0.11 0.06 0.03 0.01 0.00 0.00 0.00 0.00 0.00 0.01 0.01 0.01 0.01 0.01 0.01 0.00 0.00 0.00 0.00 0.00 0.00 0.00 0.00 0.00 0.00 0.00 0.00 0.00 0.00 0.00 0.00 0.00 0.00 0.00 0.00 0.00 0.00 0.00 0.00 0.00
0.25 0.25 0.22 0.17 0.12 0.07 0.04 0.02 0.01 0.00 0.00 0.00 0.01 0.01 0.02 0.02 0.01 0.01 0.01 0.00 0.00 0.00 0.00 0.00 0.00 0.00 0.00 0.00 0.00 0.00 0.00 0.00 0.00 0.00 0.00 0.00 0.00 0.00 0.00 0.00 0.00 0.00 0.00 0.00
0.21 0.20 0.17 0.13 0.10 0.06 0.03 0.02 0.01 0.00 0.00 0.00 0.01 0.01 0.02 0.02 0.02 0.01 0.01 0.01 0.01 0.01 0.00 0.00 0.00 0.00 0.00 0.00 0.00 0.00 0.00 0.00 0.00 0.00 0.00 0.00 0.00 0.00 0.00 0.00 0.00 0.00 0.00 0.00
0.08 0.07 0.06 0.04 0.03 0.02 0.01 0.01 0.00 0.00 0.00 0.00 0.00 0.01 0.02 0.03 0.02 0.02 0.01 0.02 0.01 0.01 0.01 0.00 0.00 0.00 0.00 0.00 0.00 0.00 0.00 0.00 0.00 0.00 0.00 0.00 0.00 0.00 0.00 0.00 0.00 0.00 0.00 0.00
0.02 0.02 0.01 0.01 0.01 0.01 0.00 0.00 0.00 0.00 0.00 0.00 0.00 0.01 0.02 0.02 0.03 0.02 0.02 0.02 0.02 0.01 0.01 0.00 0.00 0.00 0.00 0.00 0.00 0.00 0.00 0.00 0.00 0.00 0.00 0.00 0.00 0.00 0.00 0.00 0.00 0.00 0.00 0.01
0.00 0.01 0.01 0.01 0.01 0.01 0.01 0.01 0.01 0.01 0.01 0.01 0.01 0.01 0.02 0.02 0.02 0.03 0.02 0.02 0.02 0.01 0.01 0.00 0.00 0.00 0.00 0.00 0.00 0.00 0.00 0.00 0.00 0.00 0.00 0.00 0.00 0.00 0.00 0.00 0.00 0.01 0.01 0.00
0.01 0.01 0.01 0.01 0.02 0.02 0.03 0.04 0.05 0.04 0.04 0.03 0.02 0.02 0.02 0.02 0.02 0.02 0.02 0.02 0.01 0.01 0.00 0.00 0.00 0.00 0.00 0.00 0.00 0.00 0.00 0.00 0.00 0.00 0.00 0.00 0.00 0.00 0.00 0.00 0.00 0.00 0.00 0.00
MSLP
1015.46 1015.78 1016.07 1016.32 1016.49 1016.57 1016.53 1016.36 1016.07 1015.68 1015.22 1014.74 1014.28 1013.89 1013.60 1013.42 1013.34 1013.34 1013.39 1013.46 1013.51 1013.52 1013.48 1013.38 1013.25 1013.10 1012.96 1012.85 1012.79 1012.79 1012.84 1012.94 1013.08 1013.24 1013.41 1013.59 1013.76 1013.93 1014.08 1014.22 1014.34 1014.43 1014.48 1014.49
1015.29 1015.50 1015.64 1015.72 1015.71 1015.63 1015.47 1015.23 1014.94 1014.61 1014.28 1013.96 1013.69 1013.48 1013.36 1013.30 1013.31 1013.37 1013.44 1013.52 1013.57 1013.59 1013.57 1013.52 1013.45 1013.37 1013.29 1013.24 1013.21 1013.21 1013.24 1013.30 1013.38 1013.49 1013.61 1013.75 1013.91 1014.08 1014.26 1014.43 1014.59 1014.71 1014.80 1014.83
1015.02 1015.10 1015.10 1015.02 1014.87 1014.66 1014.42 1014.16 1013.90 1013.66 1013.46 1013.31 1013.23 1013.20 1013.23 1013.29 1013.37 1013.45 1013.53 1013.58 1013.61 1013.61 1013.59 1013.56 1013.53 1013.50 1013.48 1013.48 1013.49 1013.51 1013.54 1013.58 1013.63 1013.70 1013.80 1013.92 1014.07 1014.25 1014.45 1014.65 1014.84 1014.99 1015.10 1015.15
1014.72 1014.67 1014.52 1014.31 1014.04 1013.74 1013.45 1013.18 1012.96 1012.82 1012.75 1012.76 1012.83 1012.96 1013.11 1013.25 1013.38 1013.48 1013.54 1013.56 1013.54 1013.51 1013.48 1013.46 1013.45 1013.47 1013.50 1013.55 1013.61 1013.67 1013.72 1013.77 1013.82 1013.89 1013.98 1014.10 1014.26 1014.45 1014.67 1014.89 1015.10 1015.28 1015.40 1015.45
1014.44 1014.24 1013.97 1013.63 1013.27 1012.90 1012.56 1012.30 1012.12 1012.05 1012.09 1012.22 1012.42 1012.65 1012.89 1013.10 1013.27 1013.37 1013.41 1013.39 1013.35 1013.29 1013.24 1013.22 1013.24 1013.30 1013.39 1013.50 1013.61 1013.72 1013.82 1013.90 1013.98 1014.06 1014.17 1014.30 1014.48 1014.69 1014.92 1015.16 1015.39 1015.57 1015.69 1015.74
1014.17 1013.85 1013.45 1013.01 1012.56 1012.13 1011.76 1011.49 1011.34 1011.31 1011.42 1011.62 1011.90 1012.22 1012.52 1012.78 1012.97 1013.08 1013.11 1013.09 1013.02 1012.96 1012.91 1012.91 1012.95 1013.06 1013.20 1013.37 1013.54 1013.71 1013.86 1014.00 1014.12 1014.24 1014.38 1014.54 1014.74 1014.96 1015.21 1015.46 1015.68 1015.86 1015.98 1016.02
1013.87 1013.43 1012.94 1012.41 1011.89 1011.41 1011.01 1010.72 1010.57 1010.57 1010.70 1010.95 1011.27 1011.63 1011.98 1012.27 1012.49 1012.63 1012.68 1012.67 1012.62 1012.58 1012.55 1012.58 1012.67 1012.81 1013.00 1013.23 1013.47 1013.69 1013.90 1014.09 1014.27 1014.43 1014.61 1014.80 1015.02 1015.26 1015.52 1015.76 1015.99 1016.16 1016.27 1016.29
1013.46 1012.93 1012.36 1011.77 1011.20 1010.69 1010.26 1009.96 1009.80 1009.80 1009.93 1010.19 1010.53 1010.92 1011.29 1011.63 1011.89 1012.07 1012.17 1012.21 1012.22 1012.21 1012.24 1012.31 1012.44 1012.63 1012.87 1013.14 1013.42 1013.70 1013.96 1014.20 1014.42 1014.63 1014.84 1015.06 1015.30 1015.55 1015.81 1016.05 1016.27 1016.44 1016.53 1016.56
1012.84 1012.25 1011.64 1011.03 1010.44 1009.92 1009.48 1009.17 1009.00 1008.99 1009.12 1009.37 1009.72 1010.12 1010.53 1010.91 1011.23 1011.47 1011.65 1011.77 1011.85 1011.92 1012.01 1012.14 1012.31 1012.54 1012.81 1013.11 1013.42 1013.73 1014.02 1014.30 1014.55 1014.79 1015.03 1015.27 1015.53 1015.79 1016.04 1016.28 1016.50 1016.66 1016.76 1016.79
1011.93 1011.33 1010.71 1010.11 1009.55 1009.05 1008.63 1008.33 1008.17 1008.15 1008.28 1008.53 1008.88 1009.30 1009.74 1010.16 1010.55 1010.88 1011.15 1011.37 1011.54 1011.70 1011.86 1012.04 1012.26 1012.52 1012.81 1013.12 1013.44 1013.76 1014.07 1014.36 1014.63 1014.90 1015.15 1015.41 1015.67 1015.93 1016.19 1016.43 1016.63 1016.80 1016.91 1016.96
1010.71 1010.12 1009.55 1009.00 1008.50 1008.05 1007.69 1007.44 1007.30 1007.30 1007.44 1007.69 1008.05 1008.48 1008.96 1009.44 1009.90 1010.31 1010.68 1010.99 1011.26 1011.51 1011.74 1011.98 1012.23 1012.50 1012.80 1013.11 1013.42 1013.74 1014.05 1014.35 1014.63 1014.90 1015.17 1015.43 1015.70 1015.96 1016.21 1016.44 1016.65 1016.83 1016.96 1017.04
1009.20 1008.67 1008.17 1007.71 1007.30 1006.96 1006.69 1006.50 1006.43 1006.46 1006.62 1006.89 1007.26 1007.71 1008.21 1008.74 1009.26 1009.75 1010.20 1010.60 1010.95 1011.27 1011.57 1011.85 1012.13 1012.41 1012.70 1013.00 1013.31 1013.62 1013.92 1014.21 1014.50 1014.78 1015.05 1015.32 1015.59 1015.85 1016.10 1016.33 1016.54 1016.72 1016.87 1016.98
1007.54 1007.08 1006.68 1006.33 1006.05 1005.83 1005.67 1005.58 1005.58 1005.67 1005.85 1006.14 1006.52 1006.98 1007.50 1008.05 1008.60 1009.15 1009.66 1010.12 1010.54 1010.92 1011.26 1011.57 1011.87 1012.17 1012.46 1012.76 1013.05 1013.36 1013.65 1013.95 1014.24 1014.53 1014.81 1015.08 1015.35 1015.61 1015.85 1016.08 1016.29 1016.48 1016.64 1016.78
1005.90 1005.52 1005.23 1005.01 1004.86 1004.76 1004.72 1004.74 1004.81 1004.96 1005.18 1005.48 1005.86 1006.31 1006.81 1007.36 1007.92 1008.48 1009.01 1009.51 1009.97 1010.38 1010.76 1011.10 1011.42 1011.73 1012.03 1012.33 1012.64 1012.95 1013.26 1013.57 1013.87 1014.17 1014.46 1014.74 1015.00 1015.25 1015.49 1015.71 1015.91 1016.10 1016.27 1016.42
1004.47 1004.17 1003.98 1003.89 1003.86 1003.88 1003.95 1004.06 1004.20 1004.38 1004.62 1004.91 1005.27 1005.68 1006.15 1006.66 1007.19 1007.73 1008.25 1008.75 1009.22 1009.65 1010.05 1010.41 1010.76 1011.09 1011.41 1011.74 1012.07 1012.40 1012.74 1013.07 1013.40 1013.72 1014.02 1014.30 1014.56 1014.80 1015.02 1015.23 1015.42 1015.60 1015.76 1015.93
1003.43 1003.20 1003.10 1003.10 1003.17 1003.28 1003.43 1003.60 1003.78 1003.97 1004.20 1004.46 1004.76 1005.12 1005.51 1005.95 1006.41 1006.90 1007.38 1007.85 1008.31 1008.74 1009.15 1009.53 1009.91 1010.27 1010.64 1011.01 1011.38 1011.76 1012.13 1012.50 1012.86 1013.19 1013.50 1013.79 1014.04 1014.27 1014.47 1014.65 1014.82 1014.98 1015.14 1015.30
1002.87 1002.70 1002.66 1002.72 1002.85 1003.01 1003.20 1003.39 1003.57 1003.74 1003.93 1004.12 1004.34 1004.60 1004.90 1005.23 1005.61 1006.00 1006.42 1006.84 1007.27 1007.69 1008.11 1008.52 1008.93 1009.34 1009.76 1010.18 1010.61 1011.03 1011.45 1011.86 1012.25 1012.60 1012.92 1013.20 1013.44 1013.64 1013.82 1013.98 1014.12 1014.26 1014.40 1014.56
1002.81 1002.67 1002.66 1002.74 1002.88 1003.05 1003.23 1003.39 1003.53 1003.65 1003.76 1003.86 1003.98 1004.12 1004.30 1004.51 1004.77 1005.07 1005.41 1005.77 1006.16 1006.56 1006.98 1007.42 1007.87 1008.33 1008.80 1009.28 1009.77 1010.25 1010.71 1011.16 1011.56 1011.93 1012.25 1012.52 1012.74 1012.92 1013.07 1013.20 1013.32 1013.44 1013.58 1013.73
1003.16 1003.02 1003.01 1003.07 1003.18 1003.31 1003.43 1003.53 1003.60 1003.63 1003.63 1003.62 1003.62 1003.63 1003.68 1003.77 1003.92 1004.12 1004.37 1004.67 1005.01 1005.40 1005.82 1006.28 1006.76 1007.27 1007.80 1008.33 1008.87 1009.40 1009.90 1010.37 1010.79 1011.16 1011.47 1011.72 1011.92 1012.08 1012.20 1012.32 1012.42 1012.54 1012.67 1012.83
1003.72 1003.57 1003.52 1003.53 1003.58 1003.63 1003.67 1003.67 1003.63 1003.55 1003.44 1003.31 1003.18 1003.07 1003.00 1002.98 1003.02 1003.12 1003.30 1003.54 1003.85 1004.22 1004.64 1005.12 1005.63 1006.18 1006.75 1007.33 1007.90 1008.46 1008.99 1009.47 1009.90 1010.26 1010.56 1010.79 1010.98 1011.12 1011.23 1011.33 1011.44 1011.57 1011.72 1011.90
1004.30 1004.11 1004.00 1003.94 1003.90 1003.85 1003.78 1003.67 1003.51 1003.32 1003.10 1002.85 1002.61 1002.40 1002.22 1002.10 1002.05 1002.08 1002.20 1002.39 1002.67 1003.02 1003.45 1003.93 1004.47 1005.04 1005.64 1006.25 1006.85 1007.43 1007.96 1008.45 1008.87 1009.23 1009.52 1009.74 1009.91 1010.05 1010.17 1010.28 1010.41 1010.56 1010.75 1010.97
1004.71 1004.48 1004.30 1004.14 1004.00 1003.84 1003.66 1003.44 1003.17 1002.87 1002.54 1002.20 1001.87 1001.57 1001.32 1001.12 1001.01 1000.99 1001.05 1001.21 1001.47 1001.81 1002.23 1002.72 1003.26 1003.85 1004.46 1005.09 1005.70 1006.28 1006.82 1007.30 1007.72 1008.07 1008.36 1008.58 1008.77 1008.92 1009.05 1009.20 1009.36 1009.55 1009.79 1010.06
1004.85 1004.56 1004.31 1004.06 1003.82 1003.56 1003.27 1002.94 1002.58 1002.19 1001.78 1001.36 1000.97 1000.60 1000.30 1000.06 999.90 999.84 999.88 1000.02 1000.26 1000.58 1001.00 1001.48 1002.03 1002.62 1003.23 1003.85 1004.46 1005.04 1005.58 1006.06 1006.48 1006.84 1007.13 1007.37 1007.58 1007.76 1007.94 1008.12 1008.34 1008.58 1008.88 1009.21
1004.69 1004.35 1004.02 1003.70 1003.37 1003.01 1002.63 1002.22 1001.78 1001.32 1000.86 1000.39 999.95 999.55 999.22 998.95 998.78 998.69 998.71 998.83 999.06 999.37 999.77 1000.25 1000.79 1001.37 1001.97 1002.59 1003.19 1003.77 1004.30 1004.79 1005.21 1005.59 1005.90 1006.17 1006.42 1006.64 1006.87 1007.11 1007.38 1007.69 1008.03 1008.42
1004.28 1003.89 1003.51 1003.12 1002.72 1002.30 1001.85 1001.38 1000.89 1000.38 999.87 999.38 998.92 998.51 998.16 997.88 997.69 997.60 997.61 997.71 997.92 998.22 998.61 999.07 999.59 1000.15 1000.74 1001.34 1001.94 1002.51 1003.05 1003.54 1003.99 1004.39 1004.74 1005.05 1005.34 1005.62 1005.90 1006.20 1006.53 1006.88 1007.28 1007.71
1003.72 1003.29 1002.87 1002.44 1001.99 1001.52 1001.03 1000.52 1000.00 999.47 998.94 998.44 997.97 997.55 997.20 996.92 996.73 996.63 996.62 996.72 996.91 997.19 997.55 997.99 998.49 999.04 999.61 1000.20 1000.79 1001.36 1001.90 1002.41 1002.88 1003.31 1003.70 1004.06 1004.40 1004.73 1005.07 1005.42 1005.79 1006.19 1006.62 1007.08
1003.11 1002.66 1002.22 1001.76 1001.29 1000.79 1000.28 999.75 999.21 998.67 998.14 997.64 997.17 996.75 996.40 996.12 995.93 995.82 995.80 995.89 996.06 996.32 996.67 997.08 997.56 998.08 998.64 999.22 999.81 1000.38 1000.94 1001.47 1001.96 1002.42 1002.85 1003.25 1003.64 1004.01 1004.39 1004.78 1005.19 1005.61 1006.06 1006.53
Thickness
5668 5672 5674 5671 5672 5666 5649 5639 5627 5630 5631 5634 5634 5632 5630 5627 5624 5624 5625 5626 5626 5626 5628 5630 5632 5635 5638 5640 5643 5645 5644 5644 5644 5644 5644 5644 5643 5642 5642 5641 5640 5639 5637 5635
5666 5673 5672 5670 5674 5672 5664 5655 5645 5640 5636 5642 5639 5633 5627 5623 5621 5620 5619 5621 5621 5621 5620 5621 5622 5624 5627 5629 5631 5633 5633 5633 5633 5633 5633 5632 5632 5631 5630 5629 5628 5627 5625 5623
5646 5659 5658 5654 5670 5671 5667 5665 5654 5639 5639 5641 5634 5629 5624 5621 5619 5617 5616 5616 5615 5614 5613 5613 5614 5615 5616 5618 5620 5621 5621 5622 5622 5622 5622 5621 5621 5619 5618 5617 5617 5615 5614 5612
5637 5641 5636 5655 5681 5681 5671 5667 5662 5653 5647 5641 5637 5632 5628 5623 5618 5616 5615 5613 5610 5608 5607 5606 5607 5608 5608 5609 5610 5611 5611 5611 5612 5612 5611 5610 5609 5607 5606 5606 5605 5604 5603 5601
5627 5626 5637 5661 5676 5676 5664 5658 5662 5654 5649 5644 5639 5630 5624 5625 5621 5617 5614 5611 5607 5605 5603 5601 5601 5601 5601 5601 5602 5602 5602 5603 5603 5603 5601 5600 5598 5597 5596 5596 5595 5594 5592 5591
5626 5621 5622 5648 5675 5681 5665 5646 5659 5656 5649 5643 5633 5616 5617 5626 5623 5618 5614 5610 5606 5603 5600 5597 5597 5596 5595 5594 5594 5595 5596 5596 5596 5595 5593 5591 5590 5589 5588 5588 5586 5585 5582 5580
5625 5619 5630 5661 5675 5671 5640 5636 5657 5657 5652 5644 5632 5630 5630 5629 5623 5618 5613 5609 5606 5601 5597 5595 5594 5592 5590 5589 5589 5591 5591 5590 5589 5588 5587 5585 5584 5583 5582 5580 5578 5575 5573 5570
5623 5615 5626 5665 5665 5652 5649 5657 5660 5658 5655 5648 5642 5638 5633 5629 5623 5618 5613 5610 5605 5599 5596 5594 5592 5590 5587 5586 5587 5587 5586 5584 5583 5582 5582 5581 5578 5577 5575 5573 5570 5566 5563 5561
5634 5635 5654 5663 5662 5664 5662 5657 5658 5656 5656 5651 5643 5638 5634 5628 5623 5619 5615 5610 5606 5600 5596 5593 5591 5589 5585 5585 5584 5583 5581 5580 5579 5578 5576 5574 5573 5570 5568 5565 5562 5559 5555 5552
5641 5647 5656 5660 5662 5663 5661 5660 5661 5659 5657 5651 5645 5640 5634 5629 5623 5619 5615 5611 5606 5600 5595 5592 5590 5588 5586 5584 5583 5580 5578 5576 5574 5572 5570 5569 5567 5565 5562 5559 5556 5552 5548 5544
5639 5647 5652 5658 5660 5661 5661 5661 5660 5659 5657 5653 5647 5641 5635 5629 5623 5619 5616 5612 5607 5601 5597 5593 5591 5588 5586 5584 5581 5578 5575 5573 5571 5568 5566 5563 5560 5558 5557 5554 5551 5547 5543 5538
5639 5648 5645 5650 5660 5663 5658 5656 5657 5655 5653 5651 5648 5642 5636 5630 5625 5619 5615 5611 5607 5602 5598 5594 5591 5588 5586 5584 5581 5576 5573 5570 5567 5564 5562 5559 5555 5552 5551 5549 5547 5543 5539 5534
5656 5659 5656 5658 5661 5662 5659 5658 5657 5655 5652 5648 5646 5643 5637 5630 5625 5619 5615 5611 5607 5603 5599 5595 5591 5588 5586 5583 5580 5576 5572 5569 5565 5562 5559 5555 5552 5549 5545 5543 5541 5538 5534 5530
5664 5660 5656 5659 5658 5661 5660 5659 5657 5655 5653 5650 5646 5641 5637 5630 5624 5619 5615 5612 5608 5603 5598 5594 5590 5587 5586 5582 5579 5575 5571 5569 5565 5561 5558 5554 5551 5547 5543 5539 5535 5532 5530 5527
5667 5664 5659 5659 5659 5658 5658 5656 5651 5648 5647 5645 5642 5638 5634 5628 5624 5620 5617 5612 5607 5601 5597 5593 5589 5586 5585 5581 5577 5574 5570 5567 5564 5560 5557 5554 5551 5547 5543 5540 5535 5531 5527 5524
5668 5665 5661 5656 5654 5654 5653 5651 5646 5644 5643 5641 5638 5636 5634 5631 5627 5622 5616 5611 5604 5599 5596 5592 5588 5586 5583 5580 5576 5572 5568 5567 5564 5559 5556 5553 5550 5547 5544 5541 5537 5532 5528 5525
5661 5657 5653 5650 5650 5649 5646 5645 5643 5641 5639 5637 5636 5634 5631 5627 5622 5617 5613 5610 5607 5602 5597 5592 5588 5586 5582 5579 5574 5571 5567 5565 5564 5559 5555 5553 5551 5548 5546 5543 5540 5536 5533 5530
5660 5656 5652 5647 5643 5641 5639 5638 5637 5635 5633 5633 5632 5629 5625 5621 5618 5616 5614 5609 5603 5599 5596 5592 5589 5585 5581 5578 5574 5570 5566 5563 5560 5558 5555 5553 5551 5548 5545 5543 5541 5538 5534 5530
5644 5641 5638 5635 5633 5629 5628 5628 5628 5627 5627 5626 5623 5621 5620 5619 5618 5617 5613 5606 5601 5597 5595 5593 5588 5583 5579 5576 5573 5569 5565 5562 5559 5557 5555 5554 5551 5548 5545 5542 5540 5537 5534 5529
5617 5619 5618 5616 5617 5614 5613 5615 5616 5617 5618 5617 5615 5613 5612 5614 5615 5613 5609 5606 5606 5606 5602 5594 5588 5583 5579 5575 5572 5568 5565 5562 5559 5556 5554 5552 5549 5547 5545 5543 5541 5538 5534 5529
5593 5594 5595 5595 5596 5597 5598 5600 5602 5604 5607 5608 5607 5606 5606 5608 5610 5610 5606 5605 5609 5606 5601 5594 5589 5585 5579 5575 5571 5568 5565 5562 5560 5557 5555 5552 5550 5547 5545 5543 5541 5538 5535 5530
5578 5578 5576 5577 5578 5581 5584 5587 5590 5592 5595 5597 5599 5600 5600 5602 5604 5605 5607 5609 5610 5604 5600 5595 5591 5586 5581 5576 5572 5568 5566 5563 5561 5558 5555 5553 5550 5548 5546 5544 5541 5539 5535 5531
5563 5563 5563 5564 5565 5568 5572 5576 5580 5582 5585 5588 5591 5593 5594 5596 5598 5599 5602 5607 5607 5602 5599 5597 5593 5588 5581 5577 5573 5570 5567 5565 5562 5560 5557 5555 5552 5550 5548 5546 5542 5539 5535 5531
5546 5547 5549 5551 5554 5555 5559 5565 5570 5574 5578 5582 5584 5587 5588 5590 5594 5599 5604 5605 5603 5600 5598 5597 5593 5588 5581 5579 5575 5572 5569 5566 5564 5562 5559 5557 5554 5552 5549 5546 5543 5540 5536 5531
5525 5528 5531 5533 5536 5542 5548 5554 5560 5565 5568 5573 5577 5580 5584 5586 5589 5595 5599 5602 5601 5598 5597 5595 5591 5588 5585 5581 5577 5574 5571 5569 5566 5564 5561 5558 5555 5553 5550 5546 5543 5539 5535 5530
5504 5507 5511 5516 5522 5529 5536 5542 5548 5555 5559 5564 5569 5573 5577 5580 5584 5589 5593 5596 5598 5596 5595 5595 5592 5587 5585 5583 5580 5577 5574 5571 5567 5565 5563 5560 5557 5554 5550 5547 5543 5538 5533 5527
5485 5489 5493 5500 5508 5515 5523 5530 5537 5545 5551 5556 5561 5566 5570 5573 5577 5582 5586 5589 5592 5593 5594 5594 5592 5589 5586 5584 5581 5579 5576 5573 5570 5567 5564 5561 5558 5554 5550 5546 5541 5536 5530 5523